{"data":{"norad_id":66327,"epoch":"2026-05-25T00:54:22.101120Z","epoch_age_seconds":75335,"freshness":"FRESH","line1":"1 66327U 25253J   26145.03775580  .00014459  00000+0  53391-3 0  9990","line2":"2 66327  43.0004 141.1009 0001217 255.1888 104.8828 15.27580540 31924","mean_motion":15.2758054,"eccentricity":0.0001217,"inclination_deg":43.0004,"raan_deg":141.1009,"arg_perigee_deg":255.1888,"mean_anomaly_deg":104.8828,"bstar":0.00053391,"rev_number":3192,"period_min":94.266715390339,"perigee_km":482.21247293476,"apogee_km":483.88248523697,"semimajor_km":6861.1844790859,"source":"CELESTRAK","updated_at":"2026-05-25T13:38:21.168173Z"}}